Bedford, MA

11:35 PM EST on January 19, 2018 (GMT -0500)
Hanscom

Weather History for KBED - September, 2014

Change the Weather History Date:

Thursday, September 25, 2014

  Actual Average Record
Temperature  
Mean Temperature 52 °F -  
Max Temperature 62 °F 67 °F 88 °F (1970)
Min Temperature 44 °F 43 °F 29 °F (1963)
Degree Days  
Heating Degree Days 12    
Growing Degree Days 2 (Base 50)    
Moisture  
Dew Point 49 °F    
Average Humidity 85    
Maximum Humidity 100    
Minimum Humidity 67    
Precipitation  
Precipitation 0.00 in - - ()
Sea Level Pressure  
Sea Level Pressure 30.43 in    
Wind  
Wind Speed 2 mph (NNE)    
Max Wind Speed 9 mph    
Max Gust Speed -    
Visibility 10 miles    
Events      
Averages and records for this station are not official NWS values.
T = Trace of Precipitation, MM = Missing Value Source: NWS Daily Summary

Daily Weather History Graph

Daily Weather History Graph

Search for Another Location

Airport or City:

Trip Planner

Search our weather history database for the weather conditions in past years. The results will help you decide how hot, cold, wet, or windy it might be!

Date:

Astronomy

Sep. 25, 2014 Rise Set
Actual Time 6:35 AM EDT 6:37 PM EDT
Civil Twilight 6:07 AM EDT 7:05 PM EDT
Nautical Twilight 5:34 AM EDT 7:37 PM EDT
Astronomical Twilight 5:01 AM EDT 8:11 PM EDT
Moon 7:52 AM EDT (9/25) 7:17 PM EDT (9/25)
Length of Visible Light 12h 57m
Length of Day
12h 01m
New Moon, 2% of the Moon is Illuminated
Sep 25
New Moon
Oct 1
First Quarter
Oct 8
Full
Oct 15
Last Quarter
Oct 23
New

Hourly Weather History & Observations

Time (EDT) Temp. Dew Point Humidity Pressure Visibility Wind Dir Wind Speed Gust Speed Precip Events Conditions
12:56 AM 45.0 °F 44.1 °F 97% 30.59 in 10.0 mi Calm Calm - N/A   Clear
1:56 AM 44.1 °F 43.0 °F 96% 30.58 in 10.0 mi Calm Calm - N/A   Clear
2:56 AM 45.0 °F 44.1 °F 97% 30.56 in 10.0 mi Calm Calm - N/A   Clear
3:56 AM 46.0 °F 44.1 °F 93% 30.56 in 10.0 mi Calm Calm - N/A   Clear
4:56 AM 45.0 °F 44.1 °F 97% 30.56 in 10.0 mi Calm Calm - N/A   Clear
5:56 AM 45.0 °F 44.1 °F 97% 30.55 in 10.0 mi Calm Calm - N/A   Clear
6:56 AM 45.0 °F 45.0 °F 100% 30.54 in 8.0 mi Calm Calm - N/A   Clear
7:56 AM 46.9 °F 46.0 °F 97% 30.53 in 9.0 mi Calm Calm - N/A   Clear
8:56 AM 48.9 °F 48.0 °F 97% 30.53 in 9.0 mi WNW 3.5 mph - N/A   Clear
9:56 AM 52.0 °F 50.0 °F 93% 30.52 in 10.0 mi Calm Calm - N/A   Partly Cloudy
10:56 AM 57.9 °F 51.1 °F 78% 30.50 in 10.0 mi NE 4.6 mph - N/A   Overcast
11:56 AM 59.0 °F 50.0 °F 72% 30.48 in 10.0 mi NNE 4.6 mph - N/A   Overcast
12:26 PM 59.0 °F 51.1 °F 75% 30.43 in 10.0 mi ENE 8.1 mph - N/A   Overcast
12:56 PM 60.1 °F 51.1 °F 72% 30.45 in 10.0 mi NE 9.2 mph - N/A   Overcast
1:56 PM 60.1 °F 50.0 °F 69% 30.44 in 10.0 mi ENE 4.6 mph - N/A   Overcast
2:04 PM 60.1 °F 50.0 °F 69% 30.39 in 10.0 mi ENE 5.8 mph - N/A   Overcast
2:56 PM 61.0 °F 50.0 °F 67% 30.42 in 10.0 mi North 5.8 mph - N/A   Overcast
3:56 PM 61.0 °F 51.1 °F 70% 30.39 in 10.0 mi NNE 4.6 mph - N/A   Overcast
4:56 PM 61.0 °F 51.1 °F 70% 30.37 in 10.0 mi North 5.8 mph - N/A   Scattered Clouds
5:39 PM 60.1 °F 51.1 °F 72% 30.31 in 10.0 mi NNE 5.8 mph - N/A   Mostly Cloudy
5:56 PM 60.1 °F 51.1 °F 72% 30.35 in 10.0 mi NE 6.9 mph - N/A   Overcast
6:56 PM 59.0 °F 51.1 °F 75% 30.35 in 10.0 mi NE 3.5 mph - N/A   Overcast
7:34 PM 57.0 °F 51.1 °F 81% 30.29 in 10.0 mi NNE 4.6 mph - N/A   Scattered Clouds
7:56 PM 55.0 °F 51.1 °F 86% 30.32 in 10.0 mi Calm Calm - N/A   Scattered Clouds
8:56 PM 53.1 °F 51.1 °F 93% 30.31 in 10.0 mi Calm Calm - N/A   Partly Cloudy
9:09 PM 52.0 °F 51.1 °F 97% 30.27 in 10.0 mi NW 3.5 mph - N/A   Mostly Cloudy
9:56 PM 51.1 °F 50.0 °F 96% 30.30 in 10.0 mi Calm Calm - N/A   Partly Cloudy
10:56 PM 50.0 °F 48.9 °F 96% 30.30 in 10.0 mi NW 3.5 mph - N/A   Clear
11:56 PM 46.9 °F 46.9 °F 100% 30.29 in 10.0 mi Calm Calm - N/A   Clear